Temp
19 19 19 19 19 19 19 19 19 18 19 19 18 18 18 18 18 17 17 17 17 17 17 17 17 17 17 17 17 17 17 17
20 20 19 19 19 19 19 19 18 19 18 18 18 18 17 17 17 17 17 17 17 17 17 17 17 17 17 17 16 16 17 16
20 19 19 19 19 19 18 19 19 18 18 18 18 18 17 17 17 17 17 17 17 17 17 17 17 17 17 17 17 17 16 16
19 19 20 20 19 19 19 19 19 18 18 18 18 17 17 17 17 17 17 17 17 17 17 17 17 16 16 16 16 16 16 16
19 19 20 20 20 19 19 19 18 18 18 18 18 18 18 17 17 17 17 17 17 17 17 16 16 16 16 16 15 16 16 16
20 19 20 20 19 19 19 19 19 18 18 18 18 18 18 18 17 17 17 17 16 16 16 16 15 15 15 15 15 15 15 15
20 19 19 19 19 19 18 19 19 18 18 18 18 18 18 18 17 16 16 15 15 15 15 15 15 15 15 14 14 14 14 14
20 19 18 18 18 18 18 18 18 18 18 17 17 17 16 16 16 15 14 14 14 14 14 14 14 14 14 14 13 13 13 13
19 18 17 17 16 17 17 17 18 17 17 16 16 16 15 15 15 15 14 14 14 14 13 13 13 13 13 13 12 12 12 12
17 17 16 16 16 16 16 16 17 16 16 15 15 15 15 15 14 14 14 14 13 13 13 12 12 11 11 11 11 11 11 10
16 16 15 15 14 15 15 16 16 15 15 15 15 15 15 15 14 14 13 13 12 12 11 11 10 10 10 10 10 10 9 9
15 15 14 14 12 14 15 15 15 15 15 15 15 15 14 14 13 12 12 12 11 11 10 10 9 8 8 8 9 9 9 8
16 16 13 13 14 15 15 15 15 15 15 15 14 13 13 12 12 11 11 11 10 9 8 8 8 7 7 7 8 8 8 7
15 16 15 16 16 16 17 16 15 15 14 13 12 12 11 11 11 11 10 10 9 8 7 7 7 6 6 5 4 6 6 7
17 17 18 18 18 18 17 16 14 13 12 12 11 11 11 11 10 10 9 9 8 7 7 6 6 6 5 5 3 2 2 5
18 18 18 17 17 16 16 15 14 13 11 11 10 11 10 10 10 9 8 8 7 7 6 6 5 5 5 5 4 3 1 1
17 17 16 16 16 15 15 15 13 11 11 11 11 10 10 10 9 8 7 6 6 5 5 5 4 4 3 3 3 3 2 1
15 15 15 15 15 14 14 13 12 11 11 11 11 11 10 9 8 8 7 6 5 5 4 4 3 3 3 2 2 1 2 2
14 14 14 14 13 13 12 12 11 11 11 11 11 10 9 9 8 7 7 6 5 4 4 4 3 3 3 2 2 2 1 1
14 14 13 13 12 12 12 12 12 11 11 10 10 9 9 8 8 7 6 5 5 4 4 4 3 3 3 2 2 2 1 1
Height
832 833 835 837 838 839 841 843 845 846 848 848 849 850 852 853 851 852 854 854 855 856 855 855 854 853 852 852 851 850 849 848
832 833 834 837 839 840 841 845 846 846 848 850 852 852 853 854 854 854 853 853 855 856 856 856 855 854 853 853 852 852 850 849
833 834 837 838 840 840 843 845 848 848 850 851 853 854 854 856 855 856 856 854 855 855 856 856 855 855 854 853 852 851 851 849
833 834 836 836 838 839 841 843 846 848 850 852 852 854 854 857 856 856 856 854 855 855 855 854 855 854 853 852 851 850 850 848
833 835 835 837 838 840 842 844 847 849 851 852 852 851 852 854 856 856 857 855 855 854 854 854 854 853 852 851 849 849 848 846
832 834 836 838 841 842 844 845 847 847 850 851 851 851 851 853 854 856 857 856 854 853 854 854 853 852 851 850 849 847 846 844
833 837 838 842 844 846 848 848 848 848 849 850 851 851 851 852 854 856 857 856 854 853 853 853 853 851 849 848 847 845 844 842
834 839 843 845 847 850 849 849 849 850 850 851 851 851 851 852 853 855 856 855 853 852 852 852 851 849 848 846 845 843 841 839
836 840 843 845 848 850 850 847 847 848 849 850 850 850 851 852 853 855 855 854 852 852 851 850 849 848 846 844 842 840 837 835
835 839 844 849 851 851 850 847 846 847 848 849 849 850 851 851 852 855 855 853 851 849 849 848 847 845 842 841 839 837 834 832
832 840 846 845 848 847 853 850 846 849 850 850 850 851 851 851 853 854 853 851 850 848 847 845 843 841 839 837 836 834 832 831
833 840 841 841 850 856 853 853 850 851 852 852 853 852 851 852 852 852 851 849 847 845 843 842 840 838 836 834 832 831 830 829
836 843 846 850 857 857 854 853 851 851 852 851 851 851 851 851 851 850 848 846 844 842 840 839 838 835 832 831 828 828 828 827
839 844 847 850 852 851 851 849 850 850 850 850 850 850 849 849 848 847 846 845 843 841 839 838 837 835 834 831 829 826 824 825
841 843 845 845 845 846 846 847 849 850 850 850 849 849 849 849 848 847 846 845 843 842 840 837 835 834 833 834 832 830 827 823
843 844 845 846 846 846 847 847 847 848 849 849 850 850 849 848 847 846 845 844 842 840 838 837 835 833 833 832 831 830 829 824
844 844 845 847 848 848 847 847 847 847 849 850 850 849 848 847 845 843 842 840 839 838 837 836 835 834 832 830 828 827 826 825
846 847 846 847 848 848 848 848 848 849 849 850 849 847 846 844 842 840 838 837 837 836 835 834 833 832 831 829 827 826 823 822
846 846 847 847 848 848 849 849 849 849 848 848 846 845 843 841 839 838 836 834 833 833 833 832 831 830 828 826 825 824 821 819
844 846 847 847 848 849 849 849 849 848 846 845 844 842 840 839 837 835 834 833 831 830 828 827 827 826 824 824 821 820 819 817
Wind_Speed
18 16 15 15 15 15 14 13 12 12 11 12 12 11 11 11 11 11 13 12 13 13 13 13 14 13 14 14 15 16 15 15
17 16 16 16 15 14 14 13 12 12 12 11 9 10 10 9 8 9 9 9 8 8 9 10 11 12 14 14 15 15 15 16
17 17 16 16 15 15 14 13 12 12 11 9 8 7 6 6 5 4 4 5 4 4 5 7 9 10 12 13 15 16 17 17
18 18 18 18 17 17 15 16 13 12 10 8 7 5 3 1 1 1 2 3 4 5 6 6 7 9 11 11 12 14 16 17
21 19 19 19 19 18 17 15 13 11 10 8 7 5 3 2 2 3 3 3 4 5 5 5 7 10 11 13 13 14 16 17
22 21 20 19 17 16 15 14 12 11 9 7 6 6 4 3 2 2 2 3 4 5 6 8 9 10 13 14 16 16 16 17
22 20 19 16 14 14 14 13 13 9 8 7 5 4 3 2 1 1 3 4 6 7 8 9 11 14 16 19 19 18 18 19
21 18 13 11 10 11 14 15 13 11 9 8 6 4 3 1 1 3 4 7 8 9 11 12 14 16 17 18 19 20 20 20
20 16 8 3 2 3 6 7 9 11 9 6 4 2 1 3 3 3 7 9 10 11 12 13 15 16 17 19 20 22 21 20
13 15 10 10 9 9 5 2 2 3 4 3 4 5 6 5 6 8 9 10 12 14 15 16 17 19 20 21 22 22 18 13
20 18 13 9 14 8 4 7 11 12 11 11 10 9 10 9 9 9 12 14 15 16 18 18 20 20 20 19 17 18 10 10
21 15 7 6 10 15 17 17 17 14 12 11 10 10 9 10 12 12 14 16 19 20 18 17 16 13 17 9 13 8 8 16
14 7 15 23 19 17 15 16 13 10 8 6 5 5 6 8 9 12 17 20 20 17 15 15 13 16 6 17 11 2 19 10
22 21 20 18 17 13 8 8 7 6 4 3 4 5 8 12 15 18 19 18 17 15 14 13 10 14 9 7 3 10 3 27
23 20 16 11 8 7 6 5 3 3 2 1 4 6 10 13 15 15 14 15 16 14 13 11 9 8 11 3 3 2 7 4
15 14 12 10 8 5 4 4 4 4 3 2 4 8 13 15 14 14 16 17 15 13 11 9 7 6 7 5 7 8 2 3
11 10 8 5 3 3 4 4 2 4 3 2 6 11 13 14 11 11 11 11 9 9 9 7 5 8 9 7 9 10 10 5
9 8 6 5 4 3 4 3 3 3 1 5 10 13 14 14 13 12 12 14 10 10 8 6 10 9 10 12 12 6 10 8
8 5 5 3 2 2 2 3 2 3 6 10 14 14 16 16 14 14 15 11 9 8 9 11 12 12 14 14 12 11 12 11
6 6 4 3 2 2 1 3 5 8 11 11 14 16 17 18 19 18 14 12 10 10 10 12 13 14 15 15 14 14 12 10
Wind_Direction
156 153 150 151 149 152 150 147 146 138 129 121 119 109 99 96 88 84 76 75 66 57 53 49 45 37 30 18 14 15 6 359
154 154 156 155 156 150 149 150 149 139 131 125 118 117 107 101 90 85 77 76 65 48 35 32 28 21 16 6 3 1 360 358
162 162 161 156 155 149 154 151 152 146 140 140 140 137 126 113 92 75 63 62 44 21 1 354 358 8 7 2 359 354 349 347
170 167 163 161 161 157 159 162 160 161 162 162 166 164 142 146 122 354 11 26 352 340 334 340 348 355 357 355 349 340 336 333
179 175 170 171 170 168 170 169 173 172 184 187 182 184 200 236 277 318 320 353 360 18 27 13 353 353 356 357 351 339 328 322
188 183 183 183 183 185 182 183 185 187 192 196 207 218 223 233 252 276 316 340 354 354 348 346 352 357 356 351 344 339 333 328
197 198 196 196 201 208 210 209 211 208 220 235 233 258 222 237 209 264 324 350 355 353 350 357 354 349 345 341 341 338 332 327
202 206 214 222 233 246 241 239 234 233 238 252 246 250 234 219 72 27 13 11 12 7 358 350 344 338 339 343 342 339 337 336
207 204 207 237 233 286 264 253 250 243 240 234 242 241 143 97 84 33 18 8 2 353 347 345 340 336 335 334 336 335 335 331
181 186 147 77 58 22 334 145 136 172 163 149 103 96 97 91 58 30 14 357 350 345 341 335 333 333 332 332 332 333 341 344
168 163 131 78 353 279 107 111 97 92 99 91 85 76 56 30 20 11 359 353 348 346 339 336 331 330 330 329 331 333 345 353
141 142 143 180 168 124 105 95 89 83 76 66 50 37 25 12 9 5 356 348 341 339 336 333 336 336 334 337 337 311 355 339
135 133 146 138 134 124 109 96 92 94 89 78 53 38 20 10 5 354 350 348 350 350 351 351 354 351 342 341 333 154 323 342
123 130 142 143 131 118 105 106 105 89 81 64 52 27 13 5 360 354 352 351 346 350 353 354 344 353 355 335 344 309 246 332
125 125 122 116 111 125 129 139 140 169 176 84 36 17 4 352 348 348 351 346 345 340 333 334 334 343 358 1 339 281 336 299
130 137 143 148 162 176 189 221 217 226 205 98 21 354 345 344 347 345 342 337 334 331 321 319 318 330 334 294 305 301 300 314
158 160 162 179 217 256 268 249 228 158 136 13 337 331 331 328 328 329 328 324 324 327 318 304 319 319 310 303 302 297 297 258
184 188 181 198 234 249 257 242 171 152 267 310 324 323 324 309 307 313 318 319 315 310 297 287 307 310 314 301 296 295 304 292
173 166 160 170 178 169 175 161 183 286 305 314 322 317 321 313 294 297 301 298 304 301 300 303 305 303 309 307 304 303 304 304
174 182 184 188 184 167 182 302 293 292 299 305 314 315 318 319 302 292 292 290 287 284 281 286 294 297 300 299 297 294 297 300